Lapeer, MI

5:20 PM EST on February 10, 2016 (GMT -0500)
Lapeer

Weather History for KD95 - June, 2013

Change the Weather History Date:

Sunday, June 23, 2013

  Actual Average (KFNT) Record (KFNT)
Temperature  
Mean Temperature 77 °F 69 °F  
Max Temperature 88 °F 80 °F 98 °F (1923)
Min Temperature 66 °F 57 °F 44 °F (1963)
Degree Days  
Heating Degree Days 0 1  
Month to date heating degree days 59  
Since 1 June heating degree days 59  
Since 1 July heating degree days 6946  
Cooling Degree Days 12 5  
Month to date cooling degree days 74  
Year to date cooling degree days 106  
Since 1 June cooling degree days 74  
Growing Degree Days 27 (Base 50)    
Moisture  
Dew Point 66 °F    
Average Humidity 69    
Maximum Humidity 98    
Minimum Humidity 40    
Precipitation  
Precipitation 0.00 in 0.10 in 0.99 in (1994)
Month to date precipitation 2.38  
Year to date precipitation 13.37  
Snow  
Snow 0.00 in 0.00 in 0.00 in ()
Month to date snowfall 0.0  
Since 1 June snowfall 0.0  
Since 1 July snowfall 47.4  
Snow Depth -    
Sea Level Pressure  
Sea Level Pressure 30.02 in    
Wind  
Wind Speed 5 mph (SW)    
Max Wind Speed 17 mph    
Max Gust Speed 23 mph    
Visibility 8 miles    
Events      
T = Trace of Precipitation, MM = Missing Value Source: NWS Daily Summary

Daily Weather History Graph

Daily Weather History Graph

Search for Another Location

Airport or City:

Trip Planner

Search our weather history database for the weather conditions in past years. The results will help you decide how hot, cold, wet, or windy it might be!

Date:

Astronomy

Jun. 23, 2013 Rise Set
Actual Time 5:54 AM EDT 9:16 PM EDT
Civil Twilight 5:18 AM EDT 9:51 PM EDT
Nautical Twilight 4:32 AM EDT 10:37 PM EDT
Astronomical Twilight 3:35 AM EDT 11:35 PM EDT
Moon 9:25 PM EDT (6/23) 6:12 AM EDT (6/23)
Length of Visible Light 16h 32m
Length of Day
15h 22m
Full, 100% of the Moon is Illuminated
Jun 23
Full
Jun 30
Last Quarter
Jul 8
New
Jul 15
First Quarter
Jul 22
Full

Hourly Weather History & Observations

Time (EDT) Temp. Heat Index Dew Point Humidity Pressure Visibility Wind Dir Wind Speed Gust Speed Precip Events Conditions
12:13 AM 71.6 °F - 67.1 °F 86% 30.05 in 10.0 mi ESE 3.5 mph - N/A   Clear
12:33 AM 70.9 °F - 67.1 °F 88% 30.05 in 10.0 mi Calm Calm - N/A   Clear
12:54 AM 70.2 °F - 66.7 °F 89% 30.05 in 10.0 mi Calm Calm - N/A   Clear
1:13 AM 70.0 °F - 66.7 °F 89% 30.05 in 10.0 mi Calm Calm - N/A   Clear
1:33 AM 69.4 °F - 66.7 °F 91% 30.05 in 7.0 mi Calm Calm - N/A   Clear
1:54 AM 68.4 °F - 66.4 °F 93% 30.04 in 7.0 mi Calm Calm - N/A   Clear
2:13 AM 68.2 °F - 66.6 °F 95% 30.04 in 7.0 mi Calm Calm - N/A   Clear
2:33 AM 68.0 °F - 66.4 °F 95% 30.03 in 5.0 mi Calm Calm - N/A   Scattered Clouds
2:54 AM 67.1 °F - 65.7 °F 95% 30.03 in 4.0 mi Calm Calm - N/A   Scattered Clouds
3:13 AM 67.1 °F - 65.8 °F 96% 30.03 in 4.0 mi Calm Calm - N/A   Clear
3:34 AM 66.6 °F - 65.5 °F 96% 30.03 in 4.0 mi Calm Calm - N/A   Clear
3:53 AM 67.1 °F - 66.0 °F 96% 30.03 in 4.0 mi Calm Calm - N/A   Clear
4:13 AM 66.2 °F - 65.3 °F 97% 30.03 in 3.0 mi Calm Calm - N/A   Clear
4:34 AM 66.6 °F - 65.8 °F 98% 30.03 in 4.0 mi Calm Calm - N/A   Clear
4:53 AM 66.2 °F - 65.3 °F 97% 30.04 in 4.0 mi Calm Calm - N/A   Clear
5:14 AM 68.2 °F - 66.9 °F 96% 30.05 in 5.0 mi Calm Calm - N/A   Scattered Clouds
5:34 AM 67.6 °F - 66.2 °F 95% 30.05 in 5.0 mi Calm Calm - N/A   Scattered Clouds
5:53 AM 66.4 °F - 65.3 °F 96% 30.04 in 3.0 mi Calm Calm - N/A   Clear
6:14 AM 68.4 °F - 67.3 °F 96% 30.03 in 4.0 mi South 3.5 mph - N/A   Clear
6:33 AM 68.9 °F - 67.5 °F 95% 30.04 in 4.0 mi North - - N/A   Clear
6:53 AM 70.2 °F - 68.4 °F 94% 30.05 in 5.0 mi SW 3.5 mph - N/A   Clear
7:14 AM 71.1 °F - 68.9 °F 93% 30.05 in 7.0 mi SW 5.8 mph - N/A   Clear
7:33 AM 72.5 °F - 69.1 °F 89% 30.05 in 7.0 mi WSW 5.8 mph - N/A   Clear
7:53 AM 73.4 °F - 69.8 °F 88% 30.05 in 7.0 mi WSW 5.8 mph - N/A   Clear
8:14 AM 74.3 °F - 70.0 °F 86% 30.05 in 7.0 mi SW 3.5 mph - N/A   Clear
8:33 AM 75.2 °F - 70.2 °F 84% 30.05 in 7.0 mi SW 5.8 mph - N/A   Clear
8:53 AM 76.1 °F - 70.2 °F 82% 30.05 in 10.0 mi WSW 6.9 mph - N/A   Clear
9:13 AM 77.4 °F - 69.8 °F 77% 30.05 in 10.0 mi SSW 6.9 mph - N/A   Clear
9:33 AM 78.8 °F - 69.1 °F 72% 30.04 in 10.0 mi SSW 8.1 mph - N/A   Clear
9:54 AM 79.9 °F - 69.3 °F 70% 30.04 in 10.0 mi SW 10.4 mph - N/A   Clear
10:13 AM 80.8 °F 83.8 °F 69.1 °F 67% 30.04 in 10.0 mi SW 11.5 mph 17.3 mph N/A   Clear
10:33 AM 81.5 °F 84.2 °F 67.8 °F 63% 30.04 in 10.0 mi WSW 9.2 mph 16.1 mph N/A   Clear
10:54 AM 82.4 °F 85.4 °F 68.2 °F 62% 30.03 in 10.0 mi SW 10.4 mph - N/A   Clear
11:13 AM 83.3 °F 86.4 °F 68.2 °F 60% 30.04 in 10.0 mi SW 9.2 mph - N/A   Clear
11:33 AM 83.5 °F 86.0 °F 66.9 °F 57% 30.04 in 10.0 mi SW 13.8 mph - N/A   Clear
11:54 AM 83.8 °F 86.3 °F 66.4 °F 56% 30.04 in 10.0 mi SW 12.7 mph 19.6 mph N/A   Clear
12:13 PM 84.9 °F 87.4 °F 66.7 °F 54% 30.04 in 10.0 mi SW 8.1 mph 18.4 mph N/A   Clear
12:34 PM 84.2 °F 86.8 °F 66.7 °F 56% 30.04 in 10.0 mi SW 10.4 mph 19.6 mph N/A   Clear
12:53 PM 84.9 °F 87.1 °F 66.2 °F 53% 30.05 in 10.0 mi WSW 13.8 mph - N/A   Clear
1:13 PM 85.3 °F 87.4 °F 66.0 °F 52% 30.05 in 10.0 mi WSW 15.0 mph 20.7 mph N/A   Clear
1:34 PM 85.5 °F 87.6 °F 66.2 °F 52% 30.04 in 10.0 mi WSW 13.8 mph 23.0 mph N/A   Clear
1:53 PM 86.0 °F 87.9 °F 65.7 °F 50% 30.04 in 10.0 mi WSW 16.1 mph 23.0 mph N/A   Clear
2:13 PM 86.5 °F 89.3 °F 67.1 °F 52% 30.03 in 10.0 mi WSW 13.8 mph 17.3 mph N/A   Clear
2:34 PM 87.1 °F 88.9 °F 65.3 °F 48% 30.02 in 10.0 mi SW 12.7 mph 21.9 mph N/A   Clear
2:53 PM 87.6 °F 89.1 °F 64.4 °F 46% 30.02 in 10.0 mi SW 13.8 mph 21.9 mph N/A   Clear
3:13 PM 88.2 °F 89.6 °F 64.2 °F 45% 30.02 in 10.0 mi WSW 11.5 mph 16.1 mph N/A   Clear
3:34 PM 88.5 °F 88.9 °F 62.2 °F 41% 30.01 in 10.0 mi WSW 13.8 mph 21.9 mph N/A   Clear
3:53 PM 88.7 °F 89.1 °F 61.9 °F 41% 30.01 in 10.0 mi WSW 17.3 mph 20.7 mph N/A   Clear
4:13 PM 88.7 °F 88.8 °F 61.3 °F 40% 30.01 in 10.0 mi WSW 10.4 mph 21.9 mph N/A   Clear
4:34 PM 88.7 °F 89.4 °F 63.1 °F 42% 30.00 in 10.0 mi SW 12.7 mph 20.7 mph N/A   Clear
4:53 PM 88.9 °F 89.4 °F 62.6 °F 41% 30.00 in 10.0 mi West 12.7 mph 18.4 mph N/A   Clear
5:13 PM 88.9 °F 89.7 °F 63.3 °F 42% 29.99 in 10.0 mi WSW 10.4 mph 20.7 mph N/A   Clear
5:34 PM 88.7 °F 89.4 °F 62.6 °F 42% 30.00 in 10.0 mi WSW 15.0 mph 19.6 mph N/A   Clear
5:53 PM 88.5 °F 89.8 °F 64.0 °F 44% 29.99 in 10.0 mi WSW 9.2 mph - N/A   Scattered Clouds
6:13 PM 88.2 °F 89.0 °F 63.1 °F 43% 29.98 in 10.0 mi WSW 8.1 mph 16.1 mph N/A   Clear
6:34 PM 87.4 °F 88.2 °F 63.0 °F 44% 29.98 in 10.0 mi West 10.4 mph 17.3 mph N/A   Clear
6:53 PM 87.4 °F 88.5 °F 63.5 °F 45% 29.98 in 10.0 mi West 9.2 mph - N/A   Clear
7:13 PM 87.1 °F 87.8 °F 63.0 °F 44% 29.98 in 10.0 mi WSW 9.2 mph - N/A   Clear
7:34 PM 86.5 °F 87.6 °F 63.7 °F 46% 29.99 in 10.0 mi WSW 8.1 mph - N/A   Clear
7:53 PM 86.0 °F 87.3 °F 64.4 °F 48% 29.99 in 10.0 mi WSW 4.6 mph - N/A   Clear
8:13 PM 84.7 °F 86.6 °F 65.5 °F 52% 29.99 in 10.0 mi SW 4.6 mph - N/A   Clear
8:34 PM 83.3 °F 85.3 °F 65.7 °F 55% 29.99 in 10.0 mi SW 3.5 mph - N/A   Clear
8:53 PM 81.3 °F 83.8 °F 67.3 °F 62% 29.99 in 10.0 mi SSW 3.5 mph - N/A   Clear
9:14 PM 79.3 °F - 67.5 °F 67% 29.99 in 10.0 mi South 4.6 mph - N/A   Clear
9:34 PM 77.9 °F - 67.5 °F 70% 29.99 in 4.0 mi South 4.6 mph - N/A   Haze
9:53 PM 76.5 °F - 67.6 °F 74% 29.99 in 10.0 mi South 4.6 mph - N/A   Clear
10:14 PM 75.2 °F - 67.5 °F 77% 30.00 in 10.0 mi SSW 4.6 mph - N/A   Clear
10:34 PM 76.3 °F - 67.1 °F 73% 30.00 in 10.0 mi South 6.9 mph - N/A   Clear
10:53 PM 76.1 °F - 66.6 °F 72% 30.00 in 10.0 mi South 8.1 mph - N/A   Clear
11:14 PM 77.0 °F - 66.2 °F 69% 30.01 in 10.0 mi SSW 6.9 mph - N/A   Clear
11:34 PM 77.4 °F - 65.8 °F 67% 30.01 in 10.0 mi SSW 6.9 mph - N/A   Clear
11:53 PM 75.4 °F - 66.2 °F 73% 30.02 in 10.0 mi SSW 5.8 mph - N/A   Clear